This is the latest recevied weather packets stored in our database for station/object OH2TI. If no packets are shown the sender has not sent any weather packets the latest 10 day(s).
| Time | Temp. | Humidity | Pressure | Rain* | Wind** | Luminosity | Snow |
|---|---|---|---|---|---|---|---|
| 1777903851 | 11.11° C | 78% | 998.3 hPa | - | - | - | - |
| 1777903469 | 10.56° C | 79% | 998.3 hPa | - | - | - | - |
| 1777903026 | 10.56° C | 82% | 998.3 hPa | - | - | - | - |
| 1777902462 | 10.56° C | 82% | 998.4 hPa | - | - | - | - |
| 1777901862 | 10.56° C | 81% | 998.4 hPa | - | - | - | - |
| 1777901192 | 10.56° C | 81% | 998.4 hPa | - | - | - | - |
| 1777900689 | 10.56° C | 82% | 998.5 hPa | - | - | - | - |
| 1777899919 | 10° C | 85% | 998.5 hPa | - | - | - | - |
| 1777899329 | 9.44° C | 85% | 998.7 hPa | - | - | - | - |
| 1777898541 | 9.44° C | 88% | 998.7 hPa | - | - | - | - |
| 1777897762 | 9.44° C | 87% | 998.8 hPa | - | - | - | - |
| 1777897026 | 8.89° C | 86% | 998.7 hPa | - | - | - | - |
| 1777896332 | 8.89° C | 87% | 998.9 hPa | - | - | - | - |
| 1777895759 | 8.89° C | 88% | 999 hPa | - | - | - | - |
| 1777895054 | 8.89° C | 88% | 999.1 hPa | - | - | - | - |
| 1777894384 | 8.89° C | 87% | 999.2 hPa | - | - | - | - |
| 1777894026 | 8.89° C | 89% | 999.1 hPa | - | - | - | - |
| 1777893242 | 8.33° C | 88% | 999.1 hPa | - | - | - | - |
| 1777892684 | 8.33° C | 87% | 999.2 hPa | - | - | - | - |
| 1777892174 | 8.33° C | 87% | 999.3 hPa | - | - | - | - |
| 1777891589 | 8.33° C | 87% | 999.4 hPa | - | - | - | - |
| 1777890909 | 8.33° C | 85% | 999.5 hPa | - | - | - | - |
| 1777890419 | 8.33° C | 83% | 999.6 hPa | - | - | - | - |
| 1777889549 | 8.89° C | 83% | 999.7 hPa | - | - | - | - |
| 1777888879 | 8.33° C | 83% | 999.9 hPa | - | - | - | - |
* Rain since midnight (hover to see other rain measurements)
** Current wind speed in m/s (hover to see current wind gust speed)